shoulder
new_line
new_line
first
second
third
Al di la della Luna; Beyond the Moon; Astrophotography; Astrofotografia; Danilo Pivato
 
 
         
         
2017
Orbital Elements

Epoch 2017 June 16.0 TT = JDT 2457920.5
T 201                                 7 June 12.33935 TT                    MPCW
q   1.6369842            (2000.0)                    P                       Q
z  -0.0010462      Peri.   164.89543     -0.49024339    +0.49432048
                            Node   69.84899     -0.85774625     -0.12743958
e   1.0017126      Incl.     49.87642     -0.15470225     -0.85988745
 
         
         
2017.01.07
2017.02.11
2017.03.11
2017.04.18
2017.04.23
         
 
2017.04.30
2017.05.01
2017.05.20
2017.05.26
 
         
         
         
         
         
         

 

       
 
Since: 01/01/2004
 
           
Since: 01/11/2010